Location: Kuffner-Sternwarte
(48.2130°N, 16.2960°E)
Time: 05:29:05
(UTC+02:00)

Envisat - Pass Details

Date: 25 September 2024
Orbit: 762 x 764 km, 98.3° (Epoch: 04 October)

Event Time Altitude Azimuth Distance (km) Brightness Sun altitude
Rises 03:08:30 0° 24° (NNE) 3,237 7.2 -33.7°
Reaches altitude 10° 03:11:13 10° 37° (NE) 2,305 6.3 -33.4°
Maximum altitude 03:15:23 25° 93° (E) 1,504 4.8 -32.9°
Enters shadow 03:16:02 24° 105° (ESE) 1,527 4.7 -32.8°
